Find Starlink 32840

NORAD ID: 63363 Int'l Des: 2025-063 Owner: SPXS Country: US Constellation: starlink operational
LEOCIRCULAR

現在のビュー

3D地球を読み込み中...

About Starlink 32840

Starlink 32840 (NORAD 63363) is a starlink constellation satellite (v2 mini) launched Mar 26, 2025 by SPXS of US. It operates in LEO, CIRCULAR orbit with a mass of 730.00 kg.

Starlink 32840について

説明を読み込み中...

次回通過

Passes for default location (London). Set your location on the main map for personalized predictions.

高度履歴

Loading altitude history...

軌道要素

1 63363U 25063A 26168.85616272 .00024211 00000-0 72527-3 0 9993
2 63363 53.1602 303.7919 0000912 64.3467 295.7630 15.34404510 70123
Epoch: Jun 17, 2026 • Age: 12 hours

現在のステータス

高度 481.0 km
速度 7.62 km/s
衛星直下点 -51.71°S, 166.61°W
打ち上げ日 Mar 26, 2025
運用期間 1.2 years
タイプ internet

技術仕様

分類 Payload
質量 730.00 kg
乾燥質量 700.00 kg
総質量 730.00 kg
長さ 0.30 m
直径 4.10 m
スパン 29.00 m
形状 Box + pan
製造者 SPXS
バスタイプ Starlink V2M
フェーズステータス In Orbit
所有者/国 SPXS/US

Most Searched